Time,TemperatureF,DewpointF,PressureIn,WindDirection,WindDirectionDegrees,WindSpeedMPH,WindSpeedGustMPH,Humidity,HourlyPrecipIn,Conditions,Clouds,dailyrainin,SoftwareType,DateUTC
2013-05-22 00:02:00,55.0,52.0,29.55,West,277,0.0,0.0,91,-99.99,,,-99.99,,2013-05-22 05:02:00,
2013-05-22 00:12:00,55.0,52.0,29.55,West,277,0.0,0.0,91,-99.99,,,-99.99,,2013-05-22 05:12:00,
2013-05-22 00:21:00,55.0,52.0,29.55,West,277,0.0,0.0,91,-99.99,,,-99.99,,2013-05-22 05:21:00,
2013-05-22 00:32:00,55.0,52.0,29.55,West,277,0.0,0.0,91,-99.99,,,-99.99,,2013-05-22 05:32:00,
2013-05-22 00:42:00,55.0,52.0,29.55,West,277,0.0,0.0,91,-99.99,,,-99.99,,2013-05-22 05:42:00,
2013-05-22 00:51:00,55.0,52.0,29.56,NE,37,0.0,0.0,90,-99.99,,,-99.99,,2013-05-22 05:51:00,
2013-05-22 01:01:00,55.0,52.0,29.56,NNE,27,0.0,0.0,91,-99.99,,,-99.99,,2013-05-22 06:01:00,
2013-05-22 01:12:00,55.0,52.0,29.56,NNE,27,0.0,0.0,91,-99.99,,,-99.99,,2013-05-22 06:12:00,
2013-05-22 01:21:00,55.0,53.0,29.56,NNE,30,0.0,0.0,93,-99.99,,,-99.99,,2013-05-22 06:21:00,
2013-05-22 01:31:00,55.0,53.0,29.56,NNE,30,0.0,0.0,93,-99.99,,,-99.99,,2013-05-22 06:31:00,
2013-05-22 01:42:00,55.0,53.0,29.55,NNE,30,1.0,0.0,93,-99.99,,,-99.99,,2013-05-22 06:42:00,
2013-05-22 01:52:00,55.0,53.0,29.55,NNE,30,1.0,0.0,93,-99.99,,,-99.99,,2013-05-22 06:52:00,
2013-05-22 02:01:00,55.0,53.0,29.55,NNE,30,1.0,0.0,93,-99.99,,,-99.99,,2013-05-22 07:01:00,
2013-05-22 02:11:00,55.0,53.0,29.55,NNE,30,1.0,0.0,93,-99.99,,,-99.99,,2013-05-22 07:11:00,
2013-05-22 02:21:00,55.0,53.0,29.55,NE,34,0.0,0.0,93,-99.99,,,-99.99,,2013-05-22 07:21:00,
2013-05-22 02:32:00,55.0,53.0,29.55,NE,34,0.0,0.0,93,-99.99,,,-99.99,,2013-05-22 07:32:00,
2013-05-22 02:41:00,55.0,53.0,29.56,NE,46,0.0,0.0,94,-99.99,,,-99.99,,2013-05-22 07:41:00,
2013-05-22 02:42:00,55.0,53.0,29.55,NE,34,0.0,0.0,93,-99.99,,,-99.99,,2013-05-22 07:42:00,
2013-05-22 02:53:00,55.0,53.0,29.56,NE,46,0.0,0.0,94,-99.99,,,-99.99,,2013-05-22 07:53:00,
2013-05-22 03:02:00,55.0,53.0,29.56,NE,46,0.0,0.0,94,-99.99,,,-99.99,,2013-05-22 08:02:00,
2013-05-22 03:11:00,55.0,53.0,29.56,NE,46,0.0,0.0,94,-99.99,,,-99.99,,2013-05-22 08:11:00,
2013-05-22 03:22:00,55.0,53.0,29.56,NE,46,0.0,0.0,94,-99.99,,,-99.99,,2013-05-22 08:22:00,
2013-05-22 03:31:00,55.0,53.0,29.56,NE,46,0.0,0.0,94,-99.99,,,-99.99,,2013-05-22 08:31:00,
2013-05-22 03:52:00,54.0,53.0,29.56,ENE,58,2.0,0.0,96,-99.99,,,-99.99,,2013-05-22 08:52:00,
2013-05-22 04:01:00,54.0,53.0,29.56,NE,46,1.0,0.0,96,-99.99,,,-99.99,,2013-05-22 09:01:00,
2013-05-22 04:12:00,54.0,53.0,29.56,NE,46,1.0,0.0,96,-99.99,,,-99.99,,2013-05-22 09:12:00,
2013-05-22 04:22:00,53.0,52.0,29.57,ENE,58,6.0,0.0,96,-99.99,,,-99.99,,2013-05-22 09:22:00,
2013-05-22 04:33:00,53.0,52.0,29.57,ENE,58,6.0,0.0,96,-99.99,,,-99.99,,2013-05-22 09:33:00,
2013-05-22 04:42:00,53.0,52.0,29.57,ENE,58,6.0,0.0,96,-99.99,,,-99.99,,2013-05-22 09:42:00,
2013-05-22 04:53:00,53.0,52.0,29.57,NE,53,5.0,0.0,96,-99.99,,,-99.99,,2013-05-22 09:53:00,
2013-05-22 05:03:00,53.0,52.0,29.57,ENE,59,6.0,0.0,96,-99.99,,,-99.99,,2013-05-22 10:03:00,
2013-05-22 05:12:00,53.0,52.0,29.57,ENE,59,6.0,0.0,96,-99.99,,,-99.99,,2013-05-22 10:12:00,
2013-05-22 05:22:00,52.0,51.0,29.57,NE,34,2.0,0.0,96,-99.99,,,-99.99,,2013-05-22 10:22:00,
2013-05-22 05:33:00,52.0,51.0,29.57,NE,34,2.0,0.0,96,-99.99,,,-99.99,,2013-05-22 10:33:00,
2013-05-22 05:42:00,52.0,51.0,29.57,NE,34,2.0,0.0,96,-99.99,,,-99.99,,2013-05-22 10:42:00,
2013-05-22 05:52:00,52.0,51.0,29.57,ENE,67,3.0,0.0,96,-99.99,,,-99.99,,2013-05-22 10:52:00,
2013-05-22 06:02:00,52.0,51.0,29.57,NE,56,2.0,0.0,96,-99.99,,,-99.99,,2013-05-22 11:02:00,
2013-05-22 06:11:00,52.0,51.0,29.57,NE,56,2.0,0.0,96,-99.99,,,-99.99,,2013-05-22 11:11:00,
2013-05-22 06:21:00,52.0,51.0,29.57,North,3,0.0,0.0,97,-99.99,,,-99.99,,2013-05-22 11:21:00,
2013-05-22 06:32:00,51.0,50.0,29.57,North,359,2.0,0.0,97,-99.99,,,-99.99,,2013-05-22 11:32:00,
2013-05-22 06:41:00,50.0,49.0,29.58,ENE,72,0.0,0.0,97,-99.99,,,-99.99,,2013-05-22 11:41:00,
2013-05-22 06:42:00,51.0,50.0,29.57,North,359,2.0,0.0,97,-99.99,,,-99.99,,2013-05-22 11:42:00,
2013-05-22 06:52:00,51.0,50.0,29.58,ESE,110,1.0,0.0,97,-99.99,,,-99.99,,2013-05-22 11:52:00,
2013-05-22 07:02:00,50.0,49.0,29.58,ENE,72,0.0,0.0,97,-99.99,,,-99.99,,2013-05-22 12:02:00,
2013-05-22 07:12:00,50.0,49.0,29.58,ENE,72,0.0,0.0,97,-99.99,,,-99.99,,2013-05-22 12:12:00,
2013-05-22 07:22:00,50.0,49.0,29.58,ENE,72,0.0,0.0,97,-99.99,,,-99.99,,2013-05-22 12:22:00,
2013-05-22 07:32:00,50.0,49.0,29.58,ENE,72,0.0,0.0,97,-99.99,,,-99.99,,2013-05-22 12:32:00,
2013-05-22 07:52:00,49.0,48.0,29.58,NE,42,3.0,0.0,97,-99.99,,,-99.99,,2013-05-22 12:52:00,
2013-05-22 08:01:00,49.0,48.0,29.58,West,279,2.0,0.0,97,-99.99,,,-99.99,,2013-05-22 13:01:00,
2013-05-22 08:11:00,49.0,48.0,29.58,West,279,2.0,0.0,97,-99.99,,,-99.99,,2013-05-22 13:11:00,
2013-05-22 08:22:00,49.0,48.0,29.59,North,359,5.0,0.0,97,-99.99,,,-99.99,,2013-05-22 13:22:00,
2013-05-22 08:32:00,49.0,48.0,29.59,North,359,5.0,0.0,97,-99.99,,,-99.99,,2013-05-22 13:32:00,
2013-05-22 08:42:00,49.0,48.0,29.59,North,359,5.0,0.0,97,-99.99,,,-99.99,,2013-05-22 13:42:00,
2013-05-22 08:52:00,49.0,48.0,29.59,East,99,2.0,0.0,97,-99.99,,,-99.99,,2013-05-22 13:52:00,
2013-05-22 09:02:00,49.0,48.0,29.59,East,99,2.0,0.0,97,-99.99,,,-99.99,,2013-05-22 14:02:00,
2013-05-22 09:11:00,49.0,48.0,29.59,East,99,2.0,0.0,97,-99.99,,,-99.99,,2013-05-22 14:11:00,
2013-05-22 09:21:00,49.0,48.0,29.59,East,99,2.0,0.0,97,-99.99,,,-99.99,,2013-05-22 14:21:00,
2013-05-22 09:32:00,48.0,47.0,29.61,North,1,6.0,0.0,97,-99.99,,,-99.99,,2013-05-22 14:32:00,
2013-05-22 09:42:00,48.0,47.0,29.61,North,1,6.0,0.0,97,-99.99,,,-99.99,,2013-05-22 14:42:00,
2013-05-22 09:53:00,48.0,47.0,29.61,NNW,340,7.0,0.0,96,-99.99,,,-99.99,,2013-05-22 14:53:00,
2013-05-22 10:01:00,48.0,47.0,29.61,NNW,340,7.0,0.0,96,-99.99,,,-99.99,,2013-05-22 15:01:00,
2013-05-22 10:11:00,48.0,47.0,29.61,NNW,340,7.0,0.0,96,-99.99,,,-99.99,,2013-05-22 15:11:00,
2013-05-22 10:22:00,48.0,47.0,29.61,SW,220,2.0,13.0,97,-99.99,,,-99.99,,2013-05-22 15:22:00,
2013-05-22 10:32:00,48.0,47.0,29.62,WNW,292,7.0,14.0,96,-99.99,,,-99.99,,2013-05-22 15:32:00,
2013-05-22 10:43:00,48.0,47.0,29.62,WNW,292,7.0,14.0,96,-99.99,,,-99.99,,2013-05-22 15:43:00,
2013-05-22 10:53:00,48.0,47.0,29.62,ENE,63,2.0,0.0,96,-99.99,,,-99.99,,2013-05-22 15:53:00,
2013-05-22 11:03:00,48.0,47.0,29.62,ENE,63,2.0,0.0,96,-99.99,,,-99.99,,2013-05-22 16:03:00,
2013-05-22 11:12:00,48.0,47.0,29.62,ENE,63,2.0,0.0,96,-99.99,,,-99.99,,2013-05-22 16:12:00,
2013-05-22 11:23:00,48.0,47.0,29.63,West,273,3.0,0.0,96,-99.99,,,-99.99,,2013-05-22 16:23:00,
2013-05-22 11:32:00,48.0,47.0,29.63,NNW,330,6.0,0.0,96,-99.99,,,-99.99,,2013-05-22 16:32:00,
2013-05-22 11:42:00,48.0,47.0,29.63,NNW,330,6.0,0.0,96,-99.99,,,-99.99,,2013-05-22 16:42:00,
2013-05-22 11:52:00,48.0,47.0,29.64,North,357,5.0,0.0,97,-99.99,,,-99.99,,2013-05-22 16:52:00,
2013-05-22 12:02:00,48.0,47.0,29.64,NW,321,5.0,0.0,97,-99.99,,,-99.99,,2013-05-22 17:02:00,
2013-05-22 12:11:00,48.0,47.0,29.64,NW,321,5.0,0.0,97,-99.99,,,-99.99,,2013-05-22 17:11:00,
2013-05-22 12:23:00,49.0,48.0,29.64,North,2,4.0,0.0,97,-99.99,,,-99.99,,2013-05-22 17:23:00,
2013-05-22 12:33:00,49.0,48.0,29.64,North,2,4.0,0.0,97,-99.99,,,-99.99,,2013-05-22 17:33:00,
2013-05-22 12:42:00,49.0,48.0,29.64,North,2,4.0,0.0,97,-99.99,,,-99.99,,2013-05-22 17:42:00,
2013-05-22 12:53:00,49.0,48.0,29.65,NE,37,4.0,0.0,97,-99.99,,,-99.99,,2013-05-22 17:53:00,
2013-05-22 13:02:00,49.0,48.0,29.65,NNE,28,3.0,0.0,96,-99.99,,,-99.99,,2013-05-22 18:02:00,
2013-05-22 13:14:00,49.0,48.0,29.65,NNE,28,3.0,0.0,96,-99.99,,,-99.99,,2013-05-22 18:14:00,
2013-05-22 13:22:00,50.0,49.0,29.65,ENE,64,2.0,12.0,97,-99.99,,,-99.99,,2013-05-22 18:22:00,
2013-05-22 13:33:00,50.0,49.0,29.66,NW,309,1.0,0.0,97,-99.99,,,-99.99,,2013-05-22 18:33:00,
2013-05-22 13:42:00,50.0,49.0,29.66,NW,309,1.0,0.0,97,-99.99,,,-99.99,,2013-05-22 18:42:00,
2013-05-22 13:52:00,50.0,49.0,29.66,NNE,29,2.0,0.0,97,-99.99,,,-99.99,,2013-05-22 18:52:00,
2013-05-22 14:02:00,51.0,50.0,29.66,ENE,70,2.0,0.0,96,-99.99,,,-99.99,,2013-05-22 19:02:00,
2013-05-22 14:11:00,51.0,50.0,29.66,ENE,70,2.0,0.0,96,-99.99,,,-99.99,,2013-05-22 19:11:00,
2013-05-22 14:21:00,51.0,50.0,29.67,NE,52,2.0,0.0,97,-99.99,,,-99.99,,2013-05-22 19:21:00,
2013-05-22 14:32:00,51.0,50.0,29.67,NNW,337,2.0,0.0,96,-99.99,,,-99.99,,2013-05-22 19:32:00,
2013-05-22 14:42:00,51.0,50.0,29.67,NNW,337,2.0,0.0,96,-99.99,,,-99.99,,2013-05-22 19:42:00,
2013-05-22 14:52:00,51.0,50.0,29.67,NNW,337,2.0,0.0,96,-99.99,,,-99.99,,2013-05-22 19:52:00,
2013-05-22 15:02:00,51.0,50.0,29.67,ENE,75,3.0,0.0,96,-99.99,,,-99.99,,2013-05-22 20:02:00,
2013-05-22 15:11:00,51.0,50.0,29.67,ENE,75,3.0,0.0,96,-99.99,,,-99.99,,2013-05-22 20:11:00,
2013-05-22 15:22:00,51.0,50.0,29.68,East,82,1.0,0.0,96,-99.99,,,-99.99,,2013-05-22 20:22:00,
2013-05-22 15:32:00,52.0,51.0,29.68,NNW,347,3.0,0.0,96,-99.99,,,-99.99,,2013-05-22 20:32:00,
2013-05-22 15:42:00,52.0,51.0,29.68,NNW,347,3.0,0.0,96,-99.99,,,-99.99,,2013-05-22 20:42:00,
2013-05-22 15:52:00,52.0,51.0,29.68,NNE,20,2.0,0.0,96,-99.99,,,-99.99,,2013-05-22 20:52:00,
2013-05-22 16:01:00,52.0,51.0,29.68,NNE,20,2.0,0.0,96,-99.99,,,-99.99,,2013-05-22 21:01:00,
2013-05-22 16:11:00,52.0,51.0,29.68,NNE,20,2.0,0.0,96,-99.99,,,-99.99,,2013-05-22 21:11:00,
2013-05-22 16:21:00,52.0,51.0,29.69,ENE,64,2.0,0.0,95,-99.99,,,-99.99,,2013-05-22 21:21:00,
2013-05-22 16:33:00,52.0,51.0,29.69,SE,131,3.0,0.0,95,-99.99,,,-99.99,,2013-05-22 21:33:00,
2013-05-22 16:42:00,52.0,51.0,29.69,SE,131,3.0,0.0,95,-99.99,,,-99.99,,2013-05-22 21:42:00,
2013-05-22 16:53:00,52.0,51.0,29.69,SE,131,3.0,0.0,95,-99.99,,,-99.99,,2013-05-22 21:53:00,
2013-05-22 17:03:00,52.0,51.0,29.70,ENE,72,2.0,0.0,95,-99.99,,,-99.99,,2013-05-22 22:03:00,
2013-05-22 17:13:00,52.0,51.0,29.70,ENE,72,2.0,0.0,95,-99.99,,,-99.99,,2013-05-22 22:13:00,
2013-05-22 17:22:00,52.0,51.0,29.70,ENE,63,3.0,0.0,95,-99.99,,,-99.99,,2013-05-22 22:22:00,
2013-05-22 17:33:00,52.0,51.0,29.71,NE,42,4.0,0.0,96,-99.99,,,-99.99,,2013-05-22 22:33:00,
2013-05-22 17:42:00,52.0,51.0,29.71,NE,42,4.0,0.0,96,-99.99,,,-99.99,,2013-05-22 22:42:00,
2013-05-22 17:52:00,52.0,51.0,29.71,ENE,58,2.0,0.0,96,-99.99,,,-99.99,,2013-05-22 22:52:00,
2013-05-22 18:02:00,52.0,51.0,29.72,ENE,58,1.0,0.0,96,-99.99,,,-99.99,,2013-05-22 23:02:00,
2013-05-22 18:12:00,52.0,51.0,29.72,ENE,58,1.0,0.0,96,-99.99,,,-99.99,,2013-05-22 23:12:00,
2013-05-22 18:21:00,53.0,52.0,29.72,NNW,343,5.0,0.0,96,-99.99,,,-99.99,,2013-05-22 23:21:00,
2013-05-22 18:32:00,53.0,52.0,29.72,NNW,343,5.0,0.0,96,-99.99,,,-99.99,,2013-05-22 23:32:00,
2013-05-22 18:42:00,53.0,52.0,29.72,NNW,343,5.0,0.0,96,-99.99,,,-99.99,,2013-05-22 23:42:00,
2013-05-22 18:53:00,52.0,50.0,29.72,NE,44,1.0,13.0,94,-99.99,,,-99.99,,2013-05-22 23:53:00,
2013-05-22 19:01:00,52.0,50.0,29.73,ENE,60,11.0,0.0,94,-99.99,,,-99.99,,2013-05-23 00:01:00,
2013-05-22 19:11:00,52.0,50.0,29.73,ENE,60,11.0,0.0,94,-99.99,,,-99.99,,2013-05-23 00:11:00,
2013-05-22 19:22:00,52.0,51.0,29.74,NE,55,4.0,0.0,95,-99.99,,,-99.99,,2013-05-23 00:22:00,
2013-05-22 19:31:00,52.0,51.0,29.74,ENE,65,3.0,0.0,95,-99.99,,,-99.99,,2013-05-23 00:31:00,
2013-05-22 19:42:00,52.0,51.0,29.74,ENE,65,3.0,0.0,95,-99.99,,,-99.99,,2013-05-23 00:42:00,
2013-05-22 19:52:00,52.0,51.0,29.75,NNE,33,2.0,0.0,95,-99.99,,,-99.99,,2013-05-23 00:52:00,
2013-05-22 20:01:00,52.0,51.0,29.75,NNE,33,2.0,0.0,95,-99.99,,,-99.99,,2013-05-23 01:01:00,
2013-05-22 20:11:00,52.0,51.0,29.75,NNE,33,2.0,0.0,95,-99.99,,,-99.99,,2013-05-23 01:11:00,
2013-05-22 20:22:00,52.0,51.0,29.75,NNE,33,2.0,0.0,95,-99.99,,,-99.99,,2013-05-23 01:22:00,
2013-05-22 20:32:00,52.0,50.0,29.77,NE,48,4.0,0.0,94,-99.99,,,-99.99,,2013-05-23 01:32:00,
2013-05-22 20:42:00,51.0,49.0,29.78,NE,49,5.0,0.0,94,-99.99,,,-99.99,,2013-05-23 01:42:00,
2013-05-22 20:52:00,51.0,49.0,29.78,NE,49,5.0,0.0,94,-99.99,,,-99.99,,2013-05-23 01:52:00,
2013-05-22 21:02:00,51.0,49.0,29.79,NE,56,0.0,0.0,94,-99.99,,,-99.99,,2013-05-23 02:02:00,
2013-05-22 21:11:00,51.0,49.0,29.79,NE,56,0.0,0.0,94,-99.99,,,-99.99,,2013-05-23 02:11:00,
2013-05-22 21:21:00,51.0,49.0,29.79,NE,56,0.0,0.0,94,-99.99,,,-99.99,,2013-05-23 02:21:00,
2013-05-22 21:31:00,51.0,49.0,29.79,NE,56,0.0,0.0,94,-99.99,,,-99.99,,2013-05-23 02:31:00,
2013-05-22 21:42:00,51.0,49.0,29.79,NE,56,0.0,0.0,94,-99.99,,,-99.99,,2013-05-23 02:42:00,
2013-05-22 21:52:00,51.0,49.0,29.79,NE,56,0.0,0.0,94,-99.99,,,-99.99,,2013-05-23 02:52:00,
2013-05-22 22:01:00,51.0,50.0,29.81,NE,38,1.0,0.0,95,-99.99,,,-99.99,,2013-05-23 03:01:00,
2013-05-22 22:11:00,51.0,50.0,29.81,NE,38,1.0,0.0,95,-99.99,,,-99.99,,2013-05-23 03:11:00,
2013-05-22 22:21:00,51.0,49.0,29.82,NNE,15,1.0,0.0,94,-99.99,,,-99.99,,2013-05-23 03:21:00,
2013-05-22 22:33:00,51.0,49.0,29.82,NNE,15,1.0,0.0,94,-99.99,,,-99.99,,2013-05-23 03:33:00,
2013-05-22 22:43:00,51.0,49.0,29.82,NNE,15,1.0,0.0,94,-99.99,,,-99.99,,2013-05-23 03:43:00,
2013-05-22 22:53:00,50.0,48.0,29.84,NE,41,2.0,0.0,94,-99.99,,,-99.99,,2013-05-23 03:53:00,
2013-05-22 23:03:00,50.0,48.0,29.84,NE,41,2.0,0.0,94,-99.99,,,-99.99,,2013-05-23 04:03:00,
2013-05-22 23:12:00,50.0,48.0,29.84,NE,41,2.0,0.0,94,-99.99,,,-99.99,,2013-05-23 04:12:00,
2013-05-22 23:22:00,50.0,49.0,29.85,NNE,19,1.0,0.0,95,-99.99,,,-99.99,,2013-05-23 04:22:00,
2013-05-22 23:33:00,50.0,49.0,29.85,North,4,3.0,0.0,95,-99.99,,,-99.99,,2013-05-23 04:33:00,
2013-05-22 23:43:00,50.0,49.0,29.85,North,4,3.0,0.0,95,-99.99,,,-99.99,,2013-05-23 04:43:00,
2013-05-22 23:52:00,50.0,49.0,29.86,ENE,67,4.0,0.0,95,-99.99,,,-99.99,,2013-05-23 04:52:00,